• In Lithuania
  • List of Countries
  • For 7 days
  • Water Temperature
  • Satellite Maps
  • Weather Map
  • Weather Widgets
  • user-avatar
    Login

    Hourly Weather Munich

    Today, 25 November, Saturday

    Time Temperature Precipitation Wind Pressure Humidity
    00:00 +6°C° 0 mm 2 mps 714 mmHg 77%
    01:00 +6°C° 0 mm 2 mps 714 mmHg 78%
    02:00 +6°C° 0 mm 2 mps 713 mmHg 78%
    03:00 +5°C° 0 mm 2 mps 712 mmHg 78%
    04:00 +5°C° 0 mm 2 mps 712 mmHg 77%
    05:00 +5°C° 0 mm 2 mps 711 mmHg 78%
    06:00 +5°C° 0 mm 2 mps 710 mmHg 78%
    07:00 +4°C° 0 mm 2 mps 709 mmHg 78%
    08:00 +4°C° 0 mm 3 mps 709 mmHg 75%
    09:00 +7°C° 0 mm 3 mps 709 mmHg 72%
    10:00 +8°C° 0 mm 3 mps 708 mmHg 69%
    11:00 +7°C° 0.2 mm 4 mps 709 mmHg 72%
    12:00 +7°C° 0.2 mm 6 mps 709 mmHg 76%
    13:00 +6°C° 0.2 mm 7 mps 710 mmHg 80%
    14:00 +5°C° 0.5 mm 6 mps 710 mmHg 81%
    15:00 +5°C° 0.5 mm 6 mps 711 mmHg 81%
    16:00 +4°C° 0.5 mm 6 mps 712 mmHg 82%
    17:00 +5°C° 0.2 mm 5 mps 712 mmHg 83%
    18:00 +4°C° 0.2 mm 4 mps 713 mmHg 84%
    19:00 +4°C° 0.2 mm 4 mps 714 mmHg 85%
    20:00 +3°C° 0.2 mm 3 mps 714 mmHg 86%
    21:00 +3°C° 0.2 mm 3 mps 714 mmHg 87%
    22:00 +2°C° 0.2 mm 3 mps 715 mmHg 87%
    23:00 +2°C° 0.3 mm 3 mps 715 mmHg 88%

    Tomorrow, 26 November, Sunday

    Time Temperature Precipitation Wind Pressure Humidity
    00:00 +2°C° 0.3 mm 3 mps 715 mmHg 89%
    01:00 +2°C° 0.3 mm 3 mps 716 mmHg 90%
    02:00 +2°C° 0.6 mm 3 mps 716 mmHg 91%
    03:00 +1°C° 0.6 mm 3 mps 716 mmHg 91%
    04:00 +1°C° 0.6 mm 3 mps 717 mmHg 91%
    05:00 +1°C° 0.7 mm 3 mps 717 mmHg 91%
    06:00 +1°C° 0.7 mm 3 mps 718 mmHg 92%
    07:00 0°C° 0.7 mm 3 mps 718 mmHg 92%
    08:00 -1°C° 0.4 mm 4 mps 719 mmHg 90%
    09:00 -1°C° 0.4 mm 4 mps 720 mmHg 89%
    10:00 -1°C° 0.4 mm 5 mps 720 mmHg 87%
    11:00 -1°C° 0.1 mm 5 mps 720 mmHg 85%
    12:00 -1°C° 0.1 mm 5 mps 720 mmHg 82%
    13:00 0°C° 0.1 mm 5 mps 721 mmHg 80%
    14:00 -1°C° 0.1 mm 4 mps 721 mmHg 81%
    15:00 0°C° 0.1 mm 3 mps 721 mmHg 83%
    16:00 -1°C° 0.1 mm 3 mps 721 mmHg 84%
    17:00 -2°C° 0 mm 3 mps 722 mmHg 85%
    18:00 -2°C° 0 mm 3 mps 723 mmHg 87%
    19:00 -4°C° 0 mm 3 mps 723 mmHg 89%
    20:00 -4°C° 0 mm 3 mps 723 mmHg 88%
    21:00 -4°C° 0 mm 3 mps 724 mmHg 88%
    22:00 -4°C° 0 mm 3 mps 724 mmHg 87%
    23:00 -4°C° 0 mm 3 mps 724 mmHg 88%

    Day after tomorrow, 27 November, Monday

    Time Temperature Precipitation Wind Pressure Humidity
    00:00 -4°C° 0 mm 3 mps 724 mmHg 88%
    01:00 -4°C° 0 mm 3 mps 724 mmHg 88%
    02:00 -4°C° 0 mm 3 mps 724 mmHg 89%
    03:00 -4°C° 0 mm 3 mps 724 mmHg 89%
    04:00 -4°C° 0 mm 3 mps 724 mmHg 90%
    05:00 -4°C° 0 mm 3 mps 724 mmHg 89%
    06:00 -4°C° 0 mm 3 mps 725 mmHg 88%
    07:00 -4°C° 0 mm 3 mps 725 mmHg 88%
    08:00 -2°C° 0 mm 3 mps 725 mmHg 85%
    09:00 -2°C° 0 mm 3 mps 725 mmHg 83%
    10:00 -1°C° 0 mm 3 mps 725 mmHg 80%
    11:00 -1°C° 0 mm 3 mps 724 mmHg 77%
    12:00 0°C° 0 mm 3 mps 724 mmHg 75%
    13:00 +2°C° 0 mm 2 mps 723 mmHg 72%
    14:00 +1°C° 0 mm 2 mps 723 mmHg 76%
    15:00 +1°C° 0 mm 2 mps 723 mmHg 79%
    16:00 +1°C° 0 mm 1 mps 722 mmHg 83%
    17:00 0°C° 0 mm 1 mps 722 mmHg 85%
    18:00 -3°C° 0 mm 2 mps 722 mmHg 86%
    19:00 -4°C° 0 mm 2 mps 722 mmHg 88%
    20:00 -4°C° 0 mm 2 mps 722 mmHg 87%
    21:00 -4°C° 0 mm 2 mps 722 mmHg 86%
    22:00 -4°C° 0 mm 2 mps 722 mmHg 85%
    23:00 -4°C° 0 mm 2 mps 721 mmHg 83%

    28 November, Tuesday

    Time Temperature Precipitation Wind Pressure Humidity
    00:00 -4°C° 0 mm 2 mps 720 mmHg 81%
    01:00 -4°C° 0 mm 2 mps 720 mmHg 79%
    02:00 -4°C° 0 mm 2 mps 719 mmHg 78%
    03:00 -4°C° 0 mm 2 mps 718 mmHg 76%
    04:00 -4°C° 0 mm 2 mps 718 mmHg 75%
    05:00 -4°C° 0 mm 2 mps 717 mmHg 73%
    06:00 -4°C° 0 mm 2 mps 717 mmHg 72%
    07:00 -4°C° 0 mm 2 mps 716 mmHg 71%
    08:00 -3°C° 0 mm 2 mps 716 mmHg 68%
    09:00 -2°C° 0 mm 2 mps 715 mmHg 65%
    10:00 +1°C° 0 mm 2 mps 714 mmHg 62%
    11:00 +3°C° 0 mm 1 mps 713 mmHg 61%
    12:00 +4°C° 0 mm 1 mps 713 mmHg 60%
    13:00 +5°C° 0 mm 1 mps 712 mmHg 60%
    14:00 +4°C° 0 mm 1 mps 711 mmHg 64%
    15:00 +3°C° 0 mm 1 mps 711 mmHg 68%
    16:00 +2°C° 0 mm 1 mps 710 mmHg 73%
    17:00 +2°C° 0 mm 1 mps 710 mmHg 73%
    18:00 +1°C° 0 mm 2 mps 710 mmHg 74%
    19:00 -1°C° 0 mm 2 mps 709 mmHg 74%
    20:00 -1°C° 0 mm 2 mps 709 mmHg 74%
    21:00 -1°C° 0 mm 2 mps 709 mmHg 75%
    22:00 -1°C° 0 mm 2 mps 709 mmHg 75%
    23:00 -1°C° 0 mm 2 mps 708 mmHg 75%

    29 November, Wednesday

    Time Temperature Precipitation Wind Pressure Humidity
    00:00 -1°C° 0 mm 2 mps 708 mmHg 75%
    01:00 -1°C° 0 mm 2 mps 708 mmHg 75%
    02:00 -1°C° 0 mm 2 mps 708 mmHg 75%
    03:00 -1°C° 0 mm 2 mps 708 mmHg 76%
    04:00 -1°C° 0 mm 2 mps 708 mmHg 76%
    05:00 -2°C° 0 mm 2 mps 707 mmHg 77%
    06:00 -2°C° 0 mm 2 mps 707 mmHg 77%
    07:00 -2°C° 0 mm 2 mps 707 mmHg 77%
    08:00 -1°C° 0.1 mm 2 mps 707 mmHg 76%
    09:00 +1°C° 0.1 mm 2 mps 707 mmHg 74%
    10:00 +2°C° 0.1 mm 2 mps 707 mmHg 72%
    11:00 +2°C° 0.2 mm 2 mps 707 mmHg 73%
    12:00 +4°C° 0.2 mm 1 mps 707 mmHg 73%
    13:00 +4°C° 0.2 mm 1 mps 706 mmHg 74%
    14:00 +4°C° 0.3 mm 1 mps 706 mmHg 78%
    15:00 +3°C° 0.3 mm 1 mps 706 mmHg 82%
    16:00 +2°C° 0.3 mm 1 mps 706 mmHg 86%
    17:00 +2°C° 0.5 mm 1 mps 706 mmHg 88%
    18:00 +2°C° 0.5 mm 1 mps 706 mmHg 90%
    19:00 +2°C° 0.5 mm 1 mps 707 mmHg 92%
    20:00 +1°C° 0.6 mm 1 mps 707 mmHg 93%
    21:00 +1°C° 0.6 mm 1 mps 707 mmHg 94%
    22:00 -1°C° 0.6 mm 2 mps 707 mmHg 95%
    23:00 -1°C° 0.7 mm 2 mps 707 mmHg 96%

    30 November, Thursday

    Time Temperature Precipitation Wind Pressure Humidity
    00:00 -1°C° 0.7 mm 2 mps 707 mmHg 96%
    01:00 -1°C° 0.7 mm 2 mps 707 mmHg 96%
    02:00 -2°C° 0.5 mm 2 mps 707 mmHg 96%
    03:00 -2°C° 0.5 mm 2 mps 706 mmHg 96%
    04:00 -2°C° 0.5 mm 2 mps 706 mmHg 96%
    05:00 -2°C° 0.3 mm 2 mps 706 mmHg 96%
    06:00 -3°C° 0.3 mm 2 mps 707 mmHg 96%
    07:00 -3°C° 0.3 mm 2 mps 707 mmHg 97%
    08:00 -2°C° 0.2 mm 3 mps 707 mmHg 95%
    09:00 -2°C° 0.2 mm 3 mps 708 mmHg 93%
    10:00 -3°C° 0.2 mm 4 mps 708 mmHg 91%
    11:00 -2°C° 0.2 mm 4 mps 708 mmHg 90%
    12:00 -2°C° 0.2 mm 4 mps 708 mmHg 90%
    13:00 -2°C° 0.2 mm 5 mps 708 mmHg 89%
    14:00 -2°C° 0.3 mm 5 mps 708 mmHg 89%
    15:00 -2°C° 0.3 mm 5 mps 709 mmHg 90%
    16:00 -2°C° 0.3 mm 4 mps 709 mmHg 91%
    17:00 -2°C° 0.2 mm 4 mps 710 mmHg 91%
    18:00 -3°C° 0.2 mm 4 mps 710 mmHg 92%
    19:00 -3°C° 0.2 mm 4 mps 711 mmHg 93%
    20:00 -4°C° 0.2 mm 5 mps 711 mmHg 92%
    21:00 -4°C° 0.2 mm 5 mps 711 mmHg 91%
    22:00 -4°C° 0.2 mm 5 mps 711 mmHg 90%
    23:00 -4°C° 0.2 mm 5 mps 711 mmHg 90%
    Show more